Regional Weather Roundup
Issued by NWS

Home | Current Version | Previous Version | Graphics & Text | Print | Product List | Glossary On
Versions: 1 2 3 4 5 6 7 8 9 10 11 12 13 14 15 16 17 18 19 20 21 22 23 24 25 26 27 28 29 30 31 32 33 34 35 36 37 38 39 40 41 42 43 44 45 46 47 48 49 50
000
ASUS43 KOAX 221710
RWRNE

WEATHER ROUNDUP FOR NEBRASKA
NATIONAL WEATHER SERVICE OMAHA NE
1100 AM CST SUN JAN 22 2017

NOTES: SATELLITE DATA IS BEING USED TO AUGMENT CLOUD COVER ABOVE
       12000 FEET.
       "FAIR" INDICATES FEW OR NO CLOUDS BELOW 12,000 FEET WITH NO
       SIGNIFICANT WEATHER AND/OR OBSTRUCTIONS TO VISIBILITY.

  * THESE STATIONS DO NOT REPORT WEATHER SUCH AS RAIN...SNOW OR FOG.

NEZ001>004-019>022-054>056-221800-
NEBRASKA PANHANDLE

CITY           SKY/WX    TMP DP  RH WIND       PRES   REMARKS
SCOTTSBLUFF    SUNNY     36  24  62 NW13      29.92R WCI  27
ALLIANCE       CLOUDY    32  26  78 W10       29.88R WCI  24
CHADRON        CLOUDY    32  25  75 W10       29.89R WCI  24
KIMBALL        SUNNY     39  21  48 NW17G23   29.91R WCI  30
SIDNEY         SUNNY     39  23  52 NW17G29   29.91R WCI  30
$$

NEZ057>060-069>072-079>082-221800-
SOUTHWEST NEBRASKA

CITY           SKY/WX    TMP DP  RH WIND       PRES   REMARKS
NORTH PLATTE   SUNNY     38  31  76 W9        29.89R WCI  31
IMPERIAL       SUNNY     38  27  64 NW14      29.91R WCI  30
LEXINGTON      SUNNY     37  31  80 NW12      29.87R WCI  29
MCCOOK         SUNNY     41  32  70 NW13      29.89R
OGALLALA       SUNNY     39  28  64 NW17      29.90R WCI  30
$$

NEZ005>010-023>029-035>040-094-221800-
NORTH CENTRAL NEBRASKA

CITY           SKY/WX    TMP DP  RH WIND       PRES   REMARKS
VALENTINE      SUNNY     35  29  78 NW9       29.85R WCI  28
AINSWORTH      MOSUNNY   35  30  82 NW13      29.85R WCI  26
BROKEN BOW     SUNNY     39  30  70 N14       29.84R WCI  31
O`NEILL        SUNNY     36  29  77 NW9       29.84R WCI  29
ORD            SUNNY     35  28  75 NW12      29.83R WCI  27
THEDFORD       MOSUNNY   37  32  85 W7        29.87R WCI  31
$$

NEZ041-046>049-061>064-073>077-083>087-221800-
SOUTH CENTRAL NEBRASKA

CITY           SKY/WX    TMP DP  RH WIND       PRES   REMARKS
GRAND ISLAND   SUNNY     35  29  78 N14       29.84R WCI  26
AURORA         SUNNY     34  31  87 N14       29.84R WCI  25
HASTINGS       SUNNY     37  29  72 N17       29.84R WCI  27
HEBRON         PTSUNNY   36  31  81 N13       29.83R WCI  28
HOLDREGE       SUNNY     38  29  70 NW9G16    29.85R WCI  31
KEARNEY *      SUNNY    N/A N/A N/A MISG        N/A
YORK           MOSUNNY   32  32 100 N9        29.84R WCI  24
$$

NEZ011>018-030>034-042>045-221800-
NORTHEAST NEBRASKA

CITY           SKY/WX    TMP DP  RH WIND       PRES   REMARKS
NORFOLK        CLOUDY    29  27  92 NW13      29.82R FOG     WCI  19
ALBION         MOSUNNY   33  25  70 NW13      29.82S WCI  24
BLAIR          CLOUDY    35  32  90 NW9       29.78R WCI  27
FREMONT        CLOUDY    34  32  94 NW10      29.82R WCI  26
TEKAMAH        CLOUDY    35  31  85 NW8       29.80R WCI  29
WAYNE          CLOUDY    33  31  90 NW15      29.81R WCI  23
$$

NEZ050>053-065>068-078-088>093-221800-
SOUTHEAST NEBRASKA

CITY           SKY/WX    TMP DP  RH WIND       PRES   REMARKS
LINCOLN        CLOUDY    36  31  82 NW10      29.83R WCI  28
OMAHA EPPLEY   CLOUDY    36  30  79 N9        29.80R WCI  29
BEATRICE       CLOUDY    33  32  95 N17       29.81R WCI  22
FALLS CITY     CLOUDY    33  30  88 N15       29.78R FOG     WCI  23
NEBRASKA CITY  CLOUDY    33  31  93 NW9       29.78S FOG     WCI  25
PLATTSMOUTH    CLOUDY    35  30  83 NW9       29.78R WCI  27
$$

NEZ044-045-051>053-067-221800-
OMAHA AREA

CITY           SKY/WX    TMP DP  RH WIND       PRES   REMARKS
OMAHA EPPLEY   CLOUDY    36  30  79 N9        29.80R WCI  29
BLAIR          CLOUDY    35  32  90 NW9       29.78R WCI  27
FREMONT        CLOUDY    34  32  94 NW10      29.82R WCI  26
MILLARD        CLOUDY    37  32  82 NW9       29.80R WCI  31
OFFUTT AFB     CLOUDY    36  36 100 NW14      29.78R WCI  27
PLATTSMOUTH    CLOUDY    35  30  83 NW9       29.78R WCI  27
WAHOO          CLOUDY    34  32  92 NW12      29.81R WCI  25
$$




USA.gov is the U.S. government's official web portal to all federal, state and local government web resources and services.